Saipan, MP

7:35 PM ChST on September 21, 2014 (GMT +1000)
Red Cross-Airport | Change Station
CLOSE
Current Station
Personal Weather Station
Location: Saipan, MP
Elevation: 215 ft
Nearby Weather Stations

Elev 215 ft 15.13 °N, 145.72 °E | Updated 23 minutes ago

Scattered Clouds
Scattered Clouds
82.0 °F
Feels Like 93 °F
N
3.0
Wind Variable Wind from SE
Gusts 8.0 mph

Today
High -- | Low -- °F
--% Chance of Precip.
Yesterday
High -- | Low -- °F
Precip. -- in
6:05 AM 6:14 PM
Waning Crescent, 7% visible
Pressure 29.88 in
Visibility 10.0 miles
Clouds Few 1700 ft
Scattered Clouds 3000 ft
Scattered Clouds 5000 ft
Heat Index 93 °F
Dew Point 81 °F
Humidity 96%
Rainfall -999.00 in
Snow Depth Not available.
UV 0 out of 12
Pollen Not available.
Air Quality Not available.
Flu Activity Not available.
METAR PGSN 210854Z 13004KT 10SM FEW017 SCT030 SCT050 27/24 A2981 RMK AO2 SLP116 T02720244 51013 $

More Conditions Fewer Conditions

Pressure 29.88 in
Visibility 10.0 miles
Clouds Few 1700 ft
Scattered Clouds 3000 ft
Scattered Clouds 5000 ft
Heat Index 93 °F
Dew Point 81 °F
Humidity 96%
Rainfall -999.00 in
Snow Depth Not available.
UV 0 out of 12
Pollen Not available.
Air Quality Not available.
Flu Activity Not available.
METAR PGSN 210854Z 13004KT 10SM FEW017 SCT030 SCT050 27/24 A2981 RMK AO2 SLP116 T02720244 51013 $

More Conditions Fewer Conditions

10-Day Weather Forecast

Almanac

Astronomy

Sep. 21, 2014 Rise Set
Actual Time 6:05 AM ChST 6:14 PM ChST
Civil Twilight 5:44 AM ChST 6:35 PM ChST
Nautical Twilight 5:19 AM ChST 7:00 PM ChST
Astronomical Twilight 4:54 AM ChST 7:25 PM ChST
Moon 3:26 AM ChST 4:10 PM ChST
Length of Visible Light 12h 51m
Length of Day
12h 08m
Tomorrow will be 0m 51s shorter.
Waning Crescent, 7% of the Moon is Illuminated
Today
Waning Crescent
Sep 24
New
Oct 1
First Quarter
Oct 8
Full
Oct 15
Last Quarter

Community

WunderPhotos

Upload Photos

1,755,106 photos uploaded!

Nearby

Snow Depth

Station Depth Elevation
No new snow has been reported.

Earthquake Activity

City Distance Mag. Time & Date
No recent earthquake activity has been reported nearby.
Minimum magnitude displayed is 2.5.

Coastal Water Temperatures

Place Temperature
No Stations Reporting

Nearby Weather Stations